ONEWEB-0702, 61608

Orbit data source: Space-Track

ONEWEB-0702, 61608 is a payload satellite owned by Eut. One Web (UK) in LEO that was launched on Sun, 20 Oct 2024 UTC via an FALCON 9 launch vehicle from the Air Force Western Test Range (AFWTR). Payload-class satellites include a variety of spacecraft equipped with specific instruments for various scientific and technological missions. These include communications satellites like Starlink; space stations such as the ISS; scientific satellites like the Hubble; Earth observation satellites from companies like Planet Labs, Umbra, and HawkEye 360; GPS; miniature CubeSats for education and research; and military/defense satellites.

Loading next visibility...
Identifier
61608, 2024-188Q
Orbit
LEO
Country
Flag of UKUK
Related business
Manufacturer
One Web
Mission
Operational Commercial Communications
Bus & Motor
ARROW, Unknown motor
Mass
148 kg wet, ~140 kg dry
Launch date (UTC)
2024-10-20 (2 years ago)
Launch vehicle
FALCON 9
Launch site
Air Force Western Test Range (AFWTR)
Object type
Payload
Rocket body
Debris
Shape & HBR
Trap Box + 2 Pan, 6.7 m
Radar Cross Section
3.464 m², Large (>1 m²)

Expand to show TLE details & history
Last TLE update: 9 hours ago

TLE from 9 hours ago
0 ONEWEB-0702
1 61608U 24188Q   26125.75111375 -.00000339  00000-0 -99272-3 0  9999
2 61608  87.8937  29.4189 0001067  50.2029 309.9192 13.11414473 78928
Epoch: 2026-05-05T18:01Z
TLE epoch observation values (Epoch: 2026-05-05T18:01:36.228Z)
Latitude
-0.00007°
Longitude
-104.60352°
Altitude
1,220.061 km
Speed
7.245 km/s
True Right ascension
01h 57m 40s
True Declination
0° 00' 00"
Sunlit
Object was in daylight at epoch
Visualization orbit readout
Latitude
Unknown
Longitude
Unknown
Altitude
Unknown
Speed
Unknown
Apparent Right ascension
Unknown
Apparent Declination
Unknown
Sunlit
N/A
Visualization observer readout
Local Sidereal Time
10:45:46
Azimuth
Unknown
Elevation
Unknown
Doppler factor
Unknown
Orbital elements
Apogee altitude
1,215.621 km
Perigee altitude
1,214 km
Semi-major axis
7,592.947 km
Eccentricity
0.00011
Inclination
87.8937°
RAAN
29.4189°
Arg. of periapsis
50.2029°
True anomaly
309.90982°
Mean anomaly
309.9192°
Eccentric anomaly
309.91451°
Mean motion
3.28041 °/min
Orbital period
109.74 mins
BSTAR
-0.00099272
Loading maneuver chart data...
Computing Atmospheric mass density...
Loading historical data...
Loading historical data...
Loading historical data...
Loading historical data...
Loading historical data...
Loading historical data...
Loading historical data...

Documentation

Showing up to 5 results
|